TimeMST,TemperatureF,Dew PointF,Humidity,Sea Level PressureIn,VisibilityMPH,Wind Direction,Wind SpeedMPH,Gust SpeedMPH,PrecipitationIn,Events,Conditions,WindDirDegrees,DateUTC
12:53 AM,35.1,12.9,40,29.75,10.0,Calm,Calm,-,N/A,,Scattered Clouds,0,2012-12-14 07:53:00
1:53 AM,37.9,12.9,36,29.71,10.0,Calm,Calm,-,N/A,,Clear,0,2012-12-14 08:53:00
2:53 AM,37.9,14.0,38,29.72,10.0,SE,5.8,-,N/A,,Mostly Cloudy,130,2012-12-14 09:53:00
3:53 AM,37.9,14.0,38,29.71,10.0,WSW,6.9,-,N/A,,Overcast,250,2012-12-14 10:53:00
4:53 AM,39.0,15.1,38,29.68,10.0,WNW,10.4,-,N/A,,Overcast,300,2012-12-14 11:53:00
5:53 AM,37.0,14.0,39,29.68,10.0,NNW,13.8,-,N/A,,Overcast,330,2012-12-14 12:53:00
6:53 AM,36.0,18.0,48,29.71,10.0,ENE,4.6,-,0.00,Rain,Light Rain,60,2012-12-14 13:53:00
7:03 AM,35.6,23.0,60,29.69,10.0,Calm,Calm,-,0.00,Rain,Light Rain,0,2012-12-14 14:03:00
7:53 AM,33.1,28.0,82,29.68,7.0,Calm,Calm,-,0.02,Snow,Light Snow,0,2012-12-14 14:53:00
8:20 AM,33.8,30.2,87,29.64,10.0,SW,10.4,-,0.02,,Overcast,230,2012-12-14 15:20:00
8:40 AM,33.8,33.8,100,29.63,10.0,Calm,Calm,-,0.02,,Overcast,0,2012-12-14 15:40:00
8:53 AM,34.0,32.0,92,29.68,10.0,Calm,Calm,-,0.02,,Overcast,0,2012-12-14 15:53:00
9:53 AM,37.0,32.0,82,29.66,10.0,NW,8.1,-,0.00,,Overcast,310,2012-12-14 16:53:00
10:53 AM,36.0,32.0,86,29.64,10.0,NW,9.2,-,N/A,,Overcast,310,2012-12-14 17:53:00
11:02 AM,35.6,33.8,93,29.62,10.0,NW,10.4,-,N/A,,Overcast,320,2012-12-14 18:02:00
11:53 AM,36.0,34.0,93,29.62,10.0,WNW,6.9,-,N/A,,Overcast,300,2012-12-14 18:53:00
12:51 PM,35.6,33.8,93,29.59,10.0,NNW,10.4,-,0.00,Rain,Light Rain,330,2012-12-14 19:51:00
12:53 PM,35.1,34.0,96,29.61,10.0,NW,9.2,-,0.00,Rain,Light Rain,320,2012-12-14 19:53:00
1:39 PM,35.6,33.8,93,29.59,9.0,West,10.4,-,0.00,Rain,Light Rain,280,2012-12-14 20:39:00
1:53 PM,35.1,34.0,96,29.60,10.0,WNW,9.2,-,0.00,,Overcast,300,2012-12-14 20:53:00
2:53 PM,36.0,34.0,93,29.63,10.0,WSW,8.1,-,0.00,,Overcast,240,2012-12-14 21:53:00
3:53 PM,37.0,33.1,86,29.65,10.0,South,3.5,-,0.00,,Mostly Cloudy,190,2012-12-14 22:53:00
4:23 PM,37.4,33.8,87,29.66,10.0,Calm,Calm,-,N/A,,Overcast,0,2012-12-14 23:23:00
4:33 PM,37.4,33.8,87,29.66,10.0,Calm,Calm,-,N/A,,Overcast,0,2012-12-14 23:33:00
4:53 PM,37.9,34.0,86,29.67,10.0,Calm,Calm,-,N/A,,Overcast,0,2012-12-14 23:53:00
5:53 PM,37.0,34.0,89,29.71,10.0,ESE,3.5,-,N/A,,Overcast,120,2012-12-15 00:53:00
6:53 PM,37.0,35.1,93,29.74,10.0,Calm,Calm,-,0.01,Rain,Light Rain,0,2012-12-15 01:53:00
7:53 PM,37.0,35.1,93,29.76,10.0,Calm,Calm,-,0.00,,Overcast,0,2012-12-15 02:53:00
8:53 PM,37.0,34.0,89,29.78,10.0,NNE,3.5,-,N/A,,Overcast,20,2012-12-15 03:53:00
9:53 PM,36.0,34.0,93,29.79,10.0,Calm,Calm,-,N/A,,Overcast,0,2012-12-15 04:53:00
10:53 PM,35.1,33.1,92,29.80,10.0,Calm,Calm,-,N/A,,Overcast,0,2012-12-15 05:53:00
11:53 PM,37.0,34.0,89,29.81,10.0,Calm,Calm,-,N/A,,Overcast,0,2012-12-15 06:53:00